• In United Kingdom
  • List of Countries
  • For 7 days
  • Water Temperature
  • Satellite Maps
  • Weather Map
  • Weather Widgets
  • user-avatar
    Login

    Hourly Weather Baranovichi

    Today, 20 September, Wednesday

    Time Temperature Precipitation Wind Pressure Humidity
    00:00 +12°C° 0 mm 1 mps 748 mmHg 75%
    01:00 +12°C° 0 mm 1 mps 748 mmHg 76%
    02:00 +12°C° 0 mm 2 mps 747 mmHg 78%
    03:00 +12°C° 0.3 mm 2 mps 747 mmHg 81%
    04:00 +10°C° 0.3 mm 2 mps 747 mmHg 84%
    05:00 +10°C° 0.3 mm 2 mps 747 mmHg 88%
    06:00 +10°C° 1 mm 2 mps 747 mmHg 90%
    07:00 +10°C° 1 mm 3 mps 747 mmHg 92%
    08:00 +10°C° 0 mm 3 mps 747 mmHg 93%
    09:00 +11°C° 0.8 mm 3 mps 747 mmHg 92%
    10:00 +11°C° 0.8 mm 4 mps 747 mmHg 92%
    11:00 +11°C° 0.8 mm 4 mps 747 mmHg 91%
    12:00 +12°C° 0.1 mm 4 mps 747 mmHg 88%
    13:00 +13°C° 0.1 mm 5 mps 747 mmHg 85%
    14:00 +13°C° 0.1 mm 5 mps 746 mmHg 82%
    15:00 +13°C° 0 mm 4 mps 746 mmHg 82%
    16:00 +13°C° 0 mm 4 mps 746 mmHg 82%
    17:00 +13°C° 0 mm 4 mps 746 mmHg 82%
    18:00 +12°C° 0 mm 4 mps 746 mmHg 84%
    19:00 +12°C° 0 mm 4 mps 746 mmHg 86%
    20:00 +11°C° 0 mm 3 mps 746 mmHg 88%
    21:00 +11°C° 0 mm 3 mps 746 mmHg 89%
    22:00 +11°C° 0 mm 3 mps 746 mmHg 90%
    23:00 +10°C° 0 mm 3 mps 746 mmHg 91%

    Tomorrow, 21 September, Thursday

    Time Temperature Precipitation Wind Pressure Humidity
    00:00 +10°C° 0 mm 3 mps 746 mmHg 91%
    01:00 +10°C° 0 mm 3 mps 746 mmHg 91%
    02:00 +10°C° 0 mm 3 mps 745 mmHg 91%
    03:00 +10°C° 0.3 mm 4 mps 745 mmHg 91%
    04:00 +10°C° 0.3 mm 4 mps 744 mmHg 91%
    05:00 +9°C° 0.3 mm 5 mps 744 mmHg 91%
    06:00 +9°C° 1.9 mm 5 mps 744 mmHg 92%
    07:00 +9°C° 1.9 mm 5 mps 743 mmHg 93%
    08:00 +10°C° 1.9 mm 4 mps 743 mmHg 94%
    09:00 +11°C° 1 mm 4 mps 743 mmHg 94%
    10:00 +11°C° 1 mm 4 mps 743 mmHg 94%
    11:00 +11°C° 1 mm 3 mps 742 mmHg 93%
    12:00 +12°C° 0 mm 3 mps 742 mmHg 92%
    13:00 +13°C° 0 mm 3 mps 742 mmHg 91%
    14:00 +14°C° 0 mm 3 mps 742 mmHg 90%
    15:00 +14°C° 0.2 mm 3 mps 742 mmHg 91%
    16:00 +14°C° 0.2 mm 3 mps 742 mmHg 93%
    17:00 +15°C° 0.2 mm 2 mps 742 mmHg 94%
    18:00 +14°C° 0.2 mm 3 mps 742 mmHg 94%
    19:00 +14°C° 0.2 mm 3 mps 742 mmHg 94%
    20:00 +14°C° 0.2 mm 3 mps 742 mmHg 95%
    21:00 +14°C° 0.3 mm 3 mps 742 mmHg 95%
    22:00 +14°C° 0.3 mm 3 mps 742 mmHg 94%
    23:00 +16°C° 0.3 mm 3 mps 742 mmHg 94%

    Day after tomorrow, 22 September, Friday

    Time Temperature Precipitation Wind Pressure Humidity
    00:00 +16°C° 0.2 mm 3 mps 742 mmHg 94%
    01:00 +16°C° 0.2 mm 3 mps 742 mmHg 93%
    02:00 +16°C° 0.2 mm 3 mps 742 mmHg 93%
    03:00 +14°C° 0.2 mm 3 mps 742 mmHg 94%
    04:00 +14°C° 0.2 mm 3 mps 742 mmHg 94%
    05:00 +14°C° 0.2 mm 2 mps 742 mmHg 95%
    06:00 +14°C° 0 mm 3 mps 743 mmHg 94%
    07:00 +14°C° 0 mm 3 mps 743 mmHg 93%
    08:00 +16°C° 0 mm 3 mps 744 mmHg 91%
    09:00 +17°C° 0 mm 3 mps 744 mmHg 89%
    10:00 +17°C° 0 mm 3 mps 745 mmHg 87%
    11:00 +18°C° 0 mm 2 mps 745 mmHg 85%
    12:00 +19°C° 0.1 mm 2 mps 746 mmHg 84%
    13:00 +19°C° 0.1 mm 2 mps 746 mmHg 83%
    14:00 +19°C° 0.1 mm 2 mps 746 mmHg 83%
    15:00 +19°C° 0 mm 2 mps 747 mmHg 85%
    16:00 +19°C° 0 mm 1 mps 747 mmHg 87%
    17:00 +19°C° 0 mm 1 mps 747 mmHg 89%
    18:00 +18°C° 0.1 mm 1 mps 747 mmHg 91%
    19:00 +17°C° 0.1 mm 2 mps 747 mmHg 93%
    20:00 +16°C° 0.1 mm 2 mps 747 mmHg 94%
    21:00 +16°C° 0 mm 2 mps 748 mmHg 94%
    22:00 +15°C° 0 mm 2 mps 748 mmHg 93%
    23:00 +14°C° 0 mm 3 mps 748 mmHg 93%

    23 September, Saturday

    Time Temperature Precipitation Wind Pressure Humidity
    00:00 +14°C° 0 mm 3 mps 748 mmHg 92%
    01:00 +14°C° 0 mm 3 mps 748 mmHg 90%
    02:00 +14°C° 0 mm 3 mps 749 mmHg 89%
    03:00 +13°C° 0 mm 3 mps 749 mmHg 88%
    04:00 +13°C° 0 mm 3 mps 749 mmHg 88%
    05:00 +12°C° 0 mm 4 mps 749 mmHg 87%
    06:00 +12°C° 0 mm 4 mps 749 mmHg 85%
    07:00 +12°C° 0 mm 4 mps 749 mmHg 83%
    08:00 +13°C° 0 mm 4 mps 749 mmHg 80%
    09:00 +14°C° 0 mm 4 mps 750 mmHg 76%
    10:00 +16°C° 0 mm 3 mps 750 mmHg 71%
    11:00 +17°C° 0 mm 3 mps 750 mmHg 67%
    12:00 +18°C° 0 mm 3 mps 750 mmHg 65%
    13:00 +19°C° 0 mm 3 mps 750 mmHg 64%
    14:00 +19°C° 0 mm 4 mps 750 mmHg 63%
    15:00 +19°C° 0 mm 3 mps 750 mmHg 66%
    16:00 +18°C° 0 mm 3 mps 750 mmHg 69%
    17:00 +18°C° 0 mm 3 mps 751 mmHg 73%
    18:00 +17°C° 0 mm 3 mps 751 mmHg 76%
    19:00 +16°C° 0 mm 3 mps 751 mmHg 79%
    20:00 +14°C° 0 mm 3 mps 751 mmHg 81%
    21:00 +13°C° 0 mm 3 mps 751 mmHg 83%
    22:00 +12°C° 0 mm 3 mps 751 mmHg 85%
    23:00 +12°C° 0 mm 3 mps 751 mmHg 87%

    24 September, Sunday

    Time Temperature Precipitation Wind Pressure Humidity
    00:00 +11°C° 0 mm 3 mps 751 mmHg 88%
    01:00 +11°C° 0 mm 3 mps 751 mmHg 89%
    02:00 +11°C° 0 mm 3 mps 751 mmHg 90%
    03:00 +10°C° 0 mm 3 mps 751 mmHg 90%
    04:00 +10°C° 0 mm 3 mps 751 mmHg 90%
    05:00 +10°C° 0 mm 3 mps 751 mmHg 89%
    06:00 +10°C° 0 mm 3 mps 751 mmHg 87%
    07:00 +11°C° 0 mm 4 mps 752 mmHg 85%
    08:00 +11°C° 0 mm 4 mps 752 mmHg 82%
    09:00 +12°C° 0 mm 4 mps 752 mmHg 79%
    10:00 +14°C° 0 mm 4 mps 752 mmHg 75%
    11:00 +15°C° 0 mm 4 mps 752 mmHg 71%
    12:00 +17°C° 0 mm 4 mps 752 mmHg 70%
    13:00 +18°C° 0 mm 4 mps 752 mmHg 68%
    14:00 +18°C° 0 mm 4 mps 752 mmHg 66%
    15:00 +18°C° 0 mm 4 mps 752 mmHg 68%
    16:00 +18°C° 0 mm 4 mps 752 mmHg 71%
    17:00 +17°C° 0 mm 4 mps 752 mmHg 73%
    18:00 +15°C° 0 mm 4 mps 753 mmHg 74%
    19:00 +14°C° 0 mm 4 mps 753 mmHg 76%
    20:00 +13°C° 0 mm 4 mps 753 mmHg 77%
    21:00 +13°C° 0 mm 4 mps 753 mmHg 78%
    22:00 +12°C° 0 mm 4 mps 754 mmHg 78%
    23:00 +12°C° 0 mm 4 mps 754 mmHg 79%

    25 September, Monday

    Time Temperature Precipitation Wind Pressure Humidity
    00:00 +12°C° 0 mm 4 mps 754 mmHg 80%
    01:00 +11°C° 0 mm 4 mps 754 mmHg 81%
    02:00 +11°C° 0 mm 4 mps 754 mmHg 82%
    03:00 +10°C° 0 mm 4 mps 754 mmHg 82%
    04:00 +10°C° 0 mm 4 mps 754 mmHg 82%
    05:00 +10°C° 0 mm 4 mps 754 mmHg 82%
    06:00 +10°C° 0 mm 4 mps 754 mmHg 80%
    07:00 +11°C° 0 mm 4 mps 754 mmHg 78%
    08:00 +11°C° 0 mm 4 mps 754 mmHg 76%
    09:00 +13°C° 0 mm 4 mps 754 mmHg 72%
    10:00 +14°C° 0 mm 4 mps 754 mmHg 67%
    11:00 +16°C° 0 mm 5 mps 754 mmHg 62%
    12:00 +17°C° 0 mm 5 mps 754 mmHg 61%
    13:00 +19°C° 0 mm 5 mps 754 mmHg 59%
    14:00 +19°C° 0 mm 5 mps 754 mmHg 58%
    15:00 +19°C° 0 mm 4 mps 754 mmHg 61%
    16:00 +18°C° 0 mm 4 mps 754 mmHg 65%
    17:00 +18°C° 0 mm 3 mps 754 mmHg 68%
    18:00 +17°C° 0 mm 3 mps 754 mmHg 72%
    19:00 +14°C° 0 mm 4 mps 754 mmHg 75%
    20:00 +13°C° 0 mm 4 mps 755 mmHg 78%
    21:00 +13°C° 0 mm 3 mps 754 mmHg 80%
    22:00 +12°C° 0 mm 3 mps 755 mmHg 82%
    23:00 +12°C° 0 mm 3 mps 755 mmHg 83%
    Show more